Retour au catalogue

COSMOS 1670

ActifMilitaireLEO
NORAD 15930·PAYLOAD·🇷🇺 Russia

Lancé Aug 1, 1985 depuis Baikonur Cosmodrome

Loading…

Prochains Passages (prochaines 24 heures)

TLE

FraisSource: Space-Track

Époque: Sep 14, 2026, 18:36 UTC

1 15930U 85064A   26257.77515954 -.00000075  00000-0  12669-4 0  9997
2 15930  64.9381 267.4778 0061065   5.8070 354.3684 13.83883159 66150

Suivez COSMOS 1670 en temps réel avec AllMySat

Download on the App Store